This demonstration page uses our WeatherBlox Daily Observations layout. Learn more.

Left ArrowRight Arrow

Hourly Observations for December 10, 2019

Temp ( °F °C ) Dew Point ( °F °C ) Humidity (%) Winds ( mph kmh ) Pressure ( in mb ) Visibility ( mi km ) Precip ( " mm )
12:53 am 00:53 Cloudy 13 -10.6 7 -13.9 77 77 Calm 30.28 1025 10 16 0.00 0.00
1:53 am 01:53 Cloudy with Light Snow 13 -10.6 7 -13.9 77 77 W 3 6 30.27 1025 6 10 0.00 0.00
2:42 am 02:42 Cloudy with Light Snow 13 -10.6 8 -13.3 81 81 Calm 30.35 1028 2 3 0.00 0.00
2:50 am 02:50 Cloudy with Light Snow 12 -11 9 -13 85 85 Calm 30.34 1028 2 3 0.00 0.00
2:53 am 02:53 Cloudy with Light Snow 13 -10.6 9 -12.8 84 84 Calm 30.25 1024 2 3 0.00 0.00
3:02 am 03:02 Cloudy with Light Snow 13 -10.6 9 -12.8 84 84 Calm 30.34 1027 6 10 0.00 0.00
3:35 am 03:35 Cloudy 14 -10 9 -12.8 80 80 SW 5 7 30.32 1027 10 16 0.00 0.00
3:53 am 03:53 Cloudy 14 -10 10 -12.2 84 84 SW 6 9 30.23 1024 10 16 0.00 0.00
4:53 am 04:53 Cloudy 13 -10.6 9 -12.8 84 84 WSW 8 13 30.21 1023 10 16 0.00 0.00
5:53 am 05:53 Cloudy 16 -8.9 11 -11.7 80 80 W 10 17 30.18 1022 10 16 0.00 0.00
6:53 am 06:53 Cloudy 17 -8.3 12 -11.1 80 80 WSW 14 22 30.18 1022 10 16 0.00 0.00
7:53 am 07:53 Mostly Cloudy 14 -10 9 -12.8 80 80 SW 21 33 30.17 1022 10 16 0.00 0.00
8:53 am 08:53 Cloudy 16 -8.9 12 -11.1 84 84 WSW 20 31 30.14 1021 10 16 0.00 0.00
9:53 am 09:53 Cloudy 19 -7.2 14 -10 81 81 WSW 12 19 30.18 1022 10 16 0.00 0.00
10:53 am 10:53 Cloudy 22 -5.6 16 -8.9 78 78 WSW 12 19 30.15 1021 10 16 0.00 0.00
11:53 am 11:53 Cloudy 23 -5 17 -8.3 78 78 WSW 10 17 30.16 1021 10 16 0.00 0.00
12:53 pm 12:53 Cloudy 24 -4.4 18 -7.8 77 77 WSW 10 17 30.14 1021 10 16 0.00 0.00
1:53 pm 13:53 Cloudy 26 -3.3 19 -7.2 75 75 W 7 11 30.15 1021 10 16 0.00 0.00
2:53 pm 14:53 Cloudy 26 -3.3 20 -6.7 78 78 WSW 3 6 30.15 1021 10 16 0.00 0.00
3:53 pm 15:53 Cloudy 26 -3.3 20 -6.7 78 78 WNW 5 7 30.16 1022 10 16 0.00 0.00
4:53 pm 16:53 Cloudy 26 -3.3 19 -7.2 75 75 NNE 3 6 30.18 1022 10 16 0.00 0.00
5:53 pm 17:53 Cloudy 24 -4.4 18 -7.8 77 77 ENE 7 11 30.19 1022 10 16 0.00 0.00
6:53 pm 18:53 Cloudy 23 -5 18 -7.8 81 81 E 6 9 30.20 1023 10 16 0.00 0.00
7:53 pm 19:53 Mostly Clear 21 -6.1 16 -8.9 81 81 ENE 9 15 30.19 1022 10 16 0.00 0.00
8:53 pm 20:53 Mostly Cloudy 21 -6.1 17 -8.3 85 85 ENE 14 22 30.18 1022 10 16 0.00 0.00
9:53 pm 21:53 Clear 20 -6.7 16 -8.9 85 85 ENE 14 22 30.16 1022 10 16 0.00 0.00
10:53 pm 22:53 Clear 20 -6.7 17 -8.3 89 89 E 15 24 30.14 1021 10 16 0.00 0.00
11:53 pm 23:53 Clear 19 -7.2 16 -8.9 88 88 ENE 15 24 30.11 1020 10 16 0.00 0.00

Powered by AerisWeather